{"data":{"norad_id":40960,"intl_designator":"2015-057C","name":"LINGQIAO VIDEO B","alt_names":[],"object_type":"PAYLOAD","status":"ACTIVE","operator":null,"country":"PRC","launch_date":"2015-10-07","launch_site_code":"JSC","launch_vehicle":null,"mission":null,"orbit_class":"UNKNOWN","rcs_meters":0.4006,"size_class":null,"mass_kg":null,"dimensions":null,"purposes":[],"wikipedia_slug":null,"has_3d_model":false,"image_url":null,"decayed_at":null,"tle_current":{"epoch":"2026-05-25T05:51:51.211008Z","epoch_age_seconds":53603,"freshness":"FRESH","line1":"1 40960U 15057C   26145.24434272  .00000922  00000+0  13595-3 0  9991","line2":"2 40960  97.6589 142.3499 0016747 349.8160  10.2710 14.77461951572069","mean_motion":14.77461951,"eccentricity":0.0016747,"inclination_deg":97.6589,"raan_deg":142.3499,"arg_perigee_deg":349.816,"mean_anomaly_deg":10.271,"bstar":0.00013595,"rev_number":57206,"period_min":97.464438865945,"perigee_km":625.5981573911899,"apogee_km":649.09581946203,"semimajor_km":7015.4839884266,"source":"CELESTRAK","updated_at":"2026-05-25T13:37:55.556174Z"}}}